Flag for Algeria Weather past 2 weeks in Constantine, Algeria

Now
77 °F

Partly sunny.


Feels Like: 79 °F
Forecast: 69 / 89 °F
Wind: 5 mph from North

Location: Constantine Airport

Current Time: Sep 2, 2015 at 10:00:23 AM

Latest Report: Sep 2, 2015 at 9:30 AM


Visibility: N/A

Pressure: 30.09 "Hg (28.23 "Hg at 557m altitude)

Humidity: 61%

Dew point: 63 °F

Location of ConstantineLocation

Historic Weather in Constantine — Graph

°F

Constantine temperature yesterday

Maximum temperature yesterday: 91 °F (at 1:30 PM)
Minimum temperature yesterday: 68 °F (at 3:30 AM)
Average temperature yesterday: 79 °F

Past Weeks' High & Low Weather Summary

 TemperatureHumidityPressure
High99 °F (Aug 24, 1:30 PM)100% (Aug 24, 4:00 PM)30.24 "Hg (Aug 24, 4:00 PM)
Low61 °F (Aug 21, 6:00 AM)17% (Aug 22, 1:30 PM)29.92 "Hg (Aug 18, 1:00 PM)
Average78 °F59%30.10 "Hg
* Reported Aug 18 9:00 AM — Sep 2 9:00 AM, Constantine, Weather by CustomWeather, © 2015

Note: Actual official high and low records may vary slightly from our data, if they occured in-between our weather recording intervals... More about our weather records

Advertising

Constantine weather history for previous 24 hours

 ConditionsComfort  
Time TempWeatherWind HumidityBarometerVisibility
9:00 AM
Wed, Sep 2
75 °FPartly sunny.5 mph65%30.09 "HgN/A
8:30 AM73 °FPartly sunny.5 mph69%30.09 "HgN/A
8:00 AM72 °FPartly sunny.3 mph73%30.07 "Hg5 mi
7:30 AM72 °FPartly sunny.3 mph73%30.07 "Hg5 mi
7:00 AM70 °FScattered clouds.6 mph78%30.07 "Hg5 mi
6:30 AM70 °FScattered clouds.6 mph78%30.07 "Hg5 mi
6:00 AM70 °FPassing clouds.6 mph78%30.04 "Hg5 mi
5:00 AM68 °FPassing clouds.7 mph83%30.04 "HgN/A
4:30 AM68 °FPassing clouds.No wind78%30.04 "HgN/A
4:00 AM68 °FPassing clouds.No wind78%30.04 "HgN/A
3:30 AM68 °FPassing clouds.No wind78%30.04 "HgN/A
3:00 AM68 °FPassing clouds.No wind78%30.04 "HgN/A
2:00 AM70 °FPassing clouds.No wind73%30.04 "HgN/A
1:30 AM70 °FPassing clouds.No wind73%30.07 "HgN/A
1:00 AM70 °FPassing clouds.No wind73%30.07 "HgN/A
12:30 AM70 °FPassing clouds.No wind78%30.07 "HgN/A
12:00 AM72 °FPassing clouds.3 mph73%30.07 "HgN/A
11:30 PM
Tue, Sep 1
70 °FPassing clouds.3 mph73%30.07 "HgN/A
10:30 PM73 °FPassing clouds.5 mph69%30.07 "HgN/A
10:00 PM73 °FPassing clouds.7 mph69%30.07 "HgN/A
9:30 PM73 °FPassing clouds.6 mph69%30.07 "HgN/A
9:00 PM75 °FPassing clouds.6 mph65%30.07 "HgN/A
8:30 PM75 °FPassing clouds.9 mph65%30.07 "HgN/A
8:00 PM77 °FPassing clouds.7 mph61%30.07 "HgN/A
7:30 PM79 °FPassing clouds.5 mph61%30.04 "HgN/A
7:00 PM79 °FScattered clouds.9 mph61%30.04 "HgN/A
6:30 PM81 °FScattered clouds.12 mph54%30.04 "HgN/A
6:00 PM84 °FScattered clouds.12 mph48%30.04 "HgN/A
5:30 PM86 °FScattered clouds.13 mph43%30.04 "HgN/A
5:00 PM88 °FScattered clouds.14 mph38%30.04 "HgN/A
4:30 PM90 °FScattered clouds.10 mph29%30.04 "HgN/A
4:00 PM91 °FScattered clouds.10 mph24%30.04 "HgN/A
3:30 PM90 °FScattered clouds.8 mph24%30.01 "HgN/A
3:00 PM91 °FScattered clouds.9 mph24%30.04 "HgN/A
2:30 PM90 °FScattered clouds.8 mph27%30.04 "HgN/A
2:00 PM88 °FScattered clouds.12 mph29%30.04 "HgN/A
1:30 PM91 °FScattered clouds.14 mph24%30.07 "HgN/A
1:00 PM90 °FScattered clouds.8 mph26%30.07 "HgN/A
12:30 PM90 °FSunny.3 mph22%30.07 "Hg10 mi
12:00 PM88 °FSunny.5 mph35%30.07 "Hg10 mi
11:30 AM86 °FPassing clouds.6 mph40%30.09 "HgN/A
11:00 AM82 °FSunny.3 mph51%30.09 "Hg10 mi
10:30 AM82 °FSunny.3 mph51%30.09 "Hg10 mi
10:00 AM81 °FSunny.2 mph51%30.09 "Hg10 mi
Weather by CustomWeather, © 2015

See weather overviewHow to use our weather pages